Vertical_Velocity
0 1 2 1 2 1 0 1 -0 -0 0 0 1 -0 -2 -3 -3 -1 -4 -8 -4 -5 -3 -2 -1 -1 -6 0 1 1 -1 1 -2 -4 2 3 -14 1 -16 -5 5 7 7
2 1 -0 0 -1 -1 0 1 1 0 -1 -3 -3 -2 -1 1 0 -1 -2 -2 -3 -6 -2 -4 -3 -0 2 -3 -1 -2 2 1 -2 -4 -6 -1 2 -4 -6 1 -8 10 9
2 1 1 -0 -1 -1 -1 -0 -1 -1 -1 -1 -3 -5 -5 -5 -5 -6 -4 -5 -5 -6 -6 -6 -4 -5 -4 -2 -1 -2 -0 -0 3 4 -7 -0 -5 -2 -8 -4 3 22 8
4 2 -1 -1 -1 -0 -1 -1 -2 -1 -3 -4 -5 -5 -5 -7 -10 -10 -9 -8 -6 -4 -5 -4 -3 -4 -2 -2 -3 -2 -2 -1 2 7 -2 -4 -2 -7 -2 1 -6 -4 -0
1 -0 -0 1 -0 0 -1 -2 -2 -1 -3 -4 -3 -2 -2 -2 -2 -2 -4 -6 -6 -6 -7 -6 -5 -4 -4 -2 -3 -1 -1 -1 0 -3 6 5 -2 5 -15 -4 1 -4 1
2 2 2 2 1 -1 -1 -2 -3 -4 -6 -5 -4 -4 -3 -2 -1 -2 -2 -2 -3 -5 -7 -6 -6 -4 -5 -4 -2 -2 -2 -1 1 0 -2 1 -1 8 -10 -9 -2 4 7
1 0 -1 -2 -1 -2 -2 -4 -4 -4 -3 -3 -3 -4 -5 -5 -5 -3 -5 -5 -4 -2 -2 -4 -6 -5 -4 -2 -4 -3 -0 -1 -3 -0 1 1 3 3 0 -3 2 -22 13
0 0 1 0 -1 -1 -2 -3 -3 -4 -7 -4 -2 -3 -4 -4 -3 -2 -3 -3 -6 -6 -3 -3 -3 -5 -7 -3 -2 -3 -2 1 -0 -1 -1 -2 4 4 1 -1 -1 -7 -10
1 1 -1 -3 -4 -4 -4 -5 -4 -5 -4 -4 -2 -5 -6 -5 -5 -4 -4 -5 -5 -3 -2 -4 -5 -3 -5 -8 -6 -2 -1 -3 -0 1 -1 -2 2 1 4 1 2 -2 -8
1 -0 -0 0 -2 -3 -4 -3 -2 -3 -4 -4 -3 -1 -4 -5 -4 -3 -3 -4 -3 -2 -2 -2 -2 -3 -3 -3 -5 -4 1 -5 1 -0 0 -0 2 2 1 5 3 2 -3
-2 0 -3 -3 -0 0 -0 -2 -4 -2 -3 -5 -5 -4 -3 -4 -3 -4 -3 -3 -4 -2 -1 -4 -5 -4 -6 -3 -6 -3 -4 -6 -3 3 -3 -1 1 0 1 2 5 2 2
2 -1 -1 -1 0 0 1 3 0 1 1 0 -1 -1 -1 -2 -2 -3 -5 -4 -3 0 -3 -2 -3 -3 -3 -3 -4 -5 1 -3 -4 -1 -2 -2 2 -1 2 3 3 1 4
-4 1 -2 -1 -1 -1 1 1 -1 -1 -1 -2 -1 1 -2 -2 -1 -3 -3 -2 -4 -3 -2 -6 -4 -2 -1 -3 1 -5 -5 -3 -2 -2 -3 0 -0 0 1 2 -1 1 3
-2 -1 0 2 1 3 3 1 2 -2 -2 -1 -0 -1 -2 -2 -1 -4 -5 -6 -5 -5 -3 -1 -3 -3 -4 -1 -2 -3 -4 -4 -3 -2 -4 -1 -2 -4 1 0 2 2 -1
-5 -1 -2 -3 -1 -2 -0 -1 -1 2 -3 1 1 -2 -1 -3 -4 -6 -4 -4 -4 -4 -4 -5 -1 -3 -4 -0 -4 -2 -4 -5 -3 0 -2 -1 1 -1 1 -2 4 1 -2
2 0 -1 -1 0 -1 -2 -1 0 1 -2 -0 0 -1 -3 -3 -4 -3 -1 -2 -3 -4 -3 -1 -6 -4 -3 -2 -1 -1 -6 -3 -5 -4 1 -1 -0 2 0 1 -0 3 -3
-1 -0 0 -0 -0 -1 -2 0 2 2 -0 -1 -2 -1 -4 -3 -2 -3 -2 -2 -2 -4 -3 -2 -4 -3 -1 -1 -2 0 -4 -4 -1 -3 -3 -2 0 2 1 2 2 3 -1
-3 -2 -3 -2 -2 -1 0 -2 0 2 -0 1 -2 -1 -2 -2 -0 0 -1 1 -5 -3 -4 -2 0 -5 2 -1 -2 1 -3 -2 2 -0 -1 -6 -0 4 0 0 -3 -1 1
1 -1 -0 -1 -1 1 -1 -3 1 -1 0 -1 1 2 -1 -0 -0 0 -0 2 -6 -1 -3 -2 -1 -4 1 0 -2 -2 -2 -1 -0 -0 1 -2 -2 7 3 4 -3 -0 -10
-2 -3 0 -1 -0 4 -1 -3 1 -0 3 -2 0 1 -0 -2 -2 -3 -1 -0 -4 -4 -4 -2 1 -1 -7 1 -2 2 -2 -7 -5 0 -0 1 -2 3 6 0 1 -7 -12
-2 -0 0 -1 -0 0 -0 -1 -2 2 -1 -0 0 2 2 -2 -3 -4 -1 -4 -3 -3 -2 -5 1 -1 -1 -1 0 1 -0 -2 -3 -3 -3 -0 -0 2 3 5 -3 -13 11
-0 3 -4 -2 0 -0 -3 -0 1 2 -1 -2 -0 2 2 1 -1 -5 3 -1 -5 -3 -1 -4 -1 3 1 2 3 -1 3 4 -2 -2 -3 -5 0 2 1 -0 -1 -3 6
-1 0 -4 -3 3 3 -1 -4 7 -0 -1 -3 1 2 1 1 1 -4 -3 -4 -1 -2 -2 -4 -5 -3 3 2 7 1 -1 -1 -2 3 0 -4 -3 -1 -4 4 2 3 1
-3 -0 -1 -1 -3 2 -0 -1 1 1 -3 -2 -0 1 -3 -1 2 -0 -2 -4 -0 -2 -3 -2 -3 -2 -3 2 1 0 -2 0 -1 2 -4 -5 -2 0 -5 -3 3 1 4
1 1 0 -0 -1 -0 -0 3 2 -1 -3 -3 -0 2 -2 1 0 1 -1 -1 5 -4 -7 -1 -5 -8 -6 1 -2 -3 -4 -3 -0 0 -1 -2 -1 -4 -4 -2 -3 -1 0
2 -0 1 -3 2 0 -1 3 2 -3 -4 -4 1 2 -2 1 -2 -4 3 7 -2 -0 1 -0 -5 -2 -3 -4 -3 -1 -2 1 4 -4 -3 -2 -2 -3 -3 -3 -4 -2 -4
Height
3112 3112 3112 3112 3111 3110 3110 3109 3108 3108 3107 3107 3107 3107 3107 3106 3105 3105 3105 3106 3104 3104 3103 3103 3104 3104 3106 3107 3107 3107 3109 3111 3109 3109 3111 3114 3117 3119 3122 3124 3127 3131 3131
3103 3104 3104 3104 3103 3102 3101 3099 3098 3098 3097 3097 3097 3097 3097 3096 3095 3095 3094 3093 3093 3093 3092 3091 3092 3093 3094 3094 3094 3094 3096 3100 3100 3099 3099 3102 3107 3107 3108 3114 3117 3118 3122
3096 3097 3096 3096 3096 3095 3093 3091 3089 3088 3087 3086 3086 3085 3084 3083 3082 3082 3082 3081 3080 3079 3078 3078 3079 3080 3081 3082 3082 3082 3083 3086 3090 3090 3090 3090 3092 3095 3097 3101 3104 3106 3109
3089 3090 3089 3089 3088 3086 3085 3083 3082 3080 3079 3077 3075 3073 3071 3069 3067 3067 3068 3068 3067 3067 3065 3064 3064 3065 3066 3067 3069 3069 3070 3071 3076 3079 3079 3079 3080 3083 3084 3089 3090 3093 3097
3082 3082 3082 3081 3080 3079 3078 3076 3075 3073 3071 3069 3067 3064 3061 3059 3057 3055 3055 3054 3054 3053 3052 3051 3051 3050 3051 3051 3053 3055 3055 3056 3060 3065 3068 3069 3068 3070 3068 3073 3079 3078 3084
3078 3077 3076 3075 3074 3072 3071 3069 3067 3066 3064 3062 3059 3056 3054 3052 3050 3047 3045 3044 3043 3042 3040 3039 3038 3037 3036 3036 3037 3038 3040 3041 3042 3049 3051 3053 3055 3058 3055 3057 3066 3066 3070
3071 3070 3070 3068 3067 3065 3064 3061 3059 3058 3056 3054 3052 3049 3047 3044 3041 3038 3036 3035 3034 3033 3031 3028 3027 3025 3024 3023 3022 3022 3023 3024 3026 3029 3035 3037 3039 3042 3044 3044 3048 3051 3058
3064 3064 3063 3061 3059 3058 3055 3053 3051 3049 3048 3046 3044 3041 3039 3036 3034 3031 3028 3026 3023 3023 3021 3019 3016 3015 3013 3011 3009 3008 3008 3008 3009 3011 3016 3020 3022 3025 3028 3030 3031 3036 3041
3059 3058 3057 3055 3053 3051 3049 3047 3044 3042 3040 3038 3036 3034 3031 3029 3027 3024 3021 3018 3015 3013 3011 3009 3007 3004 3002 3000 2998 2995 2994 2993 2993 2994 2996 3001 3005 3007 3010 3014 3015 3017 3021
3053 3051 3049 3047 3045 3043 3041 3038 3036 3033 3031 3030 3027 3025 3022 3020 3017 3015 3012 3009 3007 3005 3002 2999 2996 2994 2992 2988 2986 2984 2982 2979 2979 2978 2979 2982 2986 2989 2991 2996 2999 3000 3003
3044 3042 3040 3038 3036 3034 3031 3029 3026 3024 3022 3019 3018 3015 3013 3010 3007 3005 3002 2999 2998 2995 2992 2989 2987 2984 2981 2978 2974 2971 2969 2966 2965 2965 2963 2965 2968 2971 2974 2977 2981 2983 2986
3036 3033 3031 3029 3027 3025 3022 3019 3016 3013 3011 3009 3007 3005 3003 3000 2998 2995 2992 2989 2987 2985 2981 2978 2975 2972 2969 2966 2962 2959 2956 2953 2952 2952 2949 2950 2952 2953 2956 2958 2962 2965 2970
3027 3023 3020 3018 3016 3014 3011 3008 3005 3002 3000 2998 2996 2994 2991 2990 2987 2985 2983 2980 2978 2975 2972 2969 2965 2962 2958 2954 2950 2945 2943 2940 2938 2938 2936 2936 2935 2937 2939 2942 2943 2947 2951
3015 3011 3008 3006 3004 3002 2999 2996 2993 2991 2988 2986 2984 2982 2980 2979 2977 2975 2972 2970 2967 2964 2961 2958 2955 2951 2946 2942 2938 2933 2930 2927 2925 2924 2923 2922 2920 2922 2923 2925 2928 2930 2932
3004 3001 2998 2995 2992 2990 2987 2984 2981 2978 2976 2974 2972 2970 2969 2967 2965 2963 2961 2959 2956 2953 2950 2946 2943 2939 2934 2931 2926 2922 2918 2914 2912 2911 2910 2909 2907 2907 2909 2909 2911 2913 2916
2992 2989 2986 2982 2979 2976 2973 2971 2969 2967 2965 2963 2961 2960 2958 2956 2954 2952 2950 2948 2945 2942 2939 2935 2931 2927 2923 2920 2915 2911 2906 2902 2899 2897 2896 2895 2894 2894 2894 2895 2896 2898 2899
2981 2978 2974 2971 2968 2965 2963 2960 2958 2956 2954 2953 2952 2950 2948 2946 2944 2942 2939 2937 2934 2931 2928 2924 2920 2916 2913 2909 2904 2900 2896 2891 2888 2885 2883 2881 2881 2880 2879 2880 2880 2882 2884
2970 2967 2963 2961 2958 2955 2953 2950 2949 2947 2945 2944 2942 2940 2938 2936 2934 2932 2929 2926 2923 2920 2916 2913 2909 2905 2902 2898 2894 2889 2885 2880 2877 2874 2871 2868 2867 2867 2866 2865 2865 2866 2868
2961 2958 2955 2952 2949 2947 2944 2941 2939 2937 2935 2933 2931 2930 2928 2926 2923 2921 2919 2915 2912 2909 2905 2902 2898 2894 2891 2888 2883 2879 2874 2870 2866 2863 2861 2858 2855 2855 2855 2853 2851 2851 2851
2953 2949 2946 2943 2940 2937 2934 2931 2929 2928 2926 2924 2922 2920 2917 2915 2913 2911 2908 2905 2901 2897 2893 2891 2887 2884 2880 2878 2873 2869 2864 2858 2855 2852 2849 2847 2845 2844 2844 2842 2840 2837 2839
2943 2939 2936 2932 2929 2926 2924 2922 2920 2918 2915 2913 2911 2909 2907 2904 2901 2899 2897 2893 2890 2886 2883 2879 2877 2874 2871 2868 2864 2860 2855 2850 2844 2840 2837 2836 2834 2832 2831 2830 2828 2826 2828
2931 2928 2924 2921 2919 2916 2912 2910 2909 2906 2903 2901 2900 2899 2896 2893 2890 2888 2886 2883 2879 2875 2872 2868 2866 2865 2861 2858 2855 2851 2847 2842 2835 2830 2827 2823 2821 2819 2817 2816 2814 2813 2813
2919 2915 2912 2909 2907 2905 2901 2898 2897 2894 2892 2890 2889 2887 2885 2882 2880 2877 2875 2872 2869 2865 2862 2857 2854 2853 2851 2848 2845 2841 2836 2831 2826 2821 2816 2811 2808 2805 2802 2801 2799 2798 2796
2906 2903 2900 2897 2895 2893 2890 2887 2885 2882 2880 2879 2877 2875 2873 2871 2870 2867 2864 2861 2859 2855 2851 2848 2844 2841 2839 2837 2834 2829 2825 2820 2815 2810 2804 2799 2795 2792 2788 2785 2783 2781 2779
2895 2891 2888 2885 2883 2881 2878 2877 2874 2871 2868 2867 2866 2864 2862 2861 2859 2857 2855 2852 2850 2846 2842 2838 2834 2830 2828 2827 2823 2819 2814 2810 2804 2798 2792 2786 2781 2776 2772 2768 2765 2763 2759
2883 2880 2877 2873 2871 2869 2867 2865 2863 2859 2857 2856 2855 2853 2852 2851 2849 2847 2846 2844 2841 2838 2835 2831 2826 2823 2820 2817 2814 2811 2806 2801 2795 2787 2780 2774 2769 2763 2757 2752 2748 2746 2742